CEST,Max TemperatureF,Mean TemperatureF,Min TemperatureF,Max Dew PointF,MeanDew PointF,Min DewpointF,Max Humidity, Mean Humidity, Min Humidity, Max Sea Level PressureIn, Mean Sea Level PressureIn, Min Sea Level PressureIn, Max VisibilityMiles, Mean VisibilityMiles, Min VisibilityMiles, Max Wind SpeedMPH, Mean Wind SpeedMPH, Max Gust SpeedMPH,PrecipitationIn, CloudCover, Events, WindDirDegrees
2013-5-1,82,68,53,57,54,50,94,63,35,30.12,30.07,30.04,6,6,6,12,4,,0.00,1,,224
2013-5-2,82,68,55,63,57,50,88,66,42,30.06,29.98,29.86,6,6,6,18,8,,0.00,6,Rain-Thunderstorm,80
2013-5-3,77,68,59,64,59,54,100,80,50,29.89,29.86,29.83,6,6,6,16,7,,0.00,4,Rain-Thunderstorm,278
2013-5-4,71,60,50,55,53,48,100,77,53,30.06,29.99,29.89,6,6,6,14,9,,0.00,2,,282
2013-5-5,78,62,46,55,52,46,100,70,41,30.15,30.12,30.06,6,6,6,7,3,,0.00,3,Rain,33
2013-5-6,73,66,60,64,55,46,100,69,49,30.15,30.10,30.04,6,6,5,14,8,,0.00,5,Rain-Thunderstorm,71
2013-5-7,71,64,57,63,60,57,100,86,68,30.09,30.04,30.01,6,6,5,17,10,,0.00,5,Rain,100
2013-5-8,75,66,57,61,58,52,100,78,44,30.06,30.02,29.98,6,6,3,8,3,,0.00,5,Rain-Thunderstorm,113
2013-5-9,75,65,55,59,54,48,100,69,41,30.06,30.04,30.01,6,6,6,12,4,,0.00,4,,188
2013-5-10,78,64,50,55,51,46,100,64,34,30.04,29.94,29.86,6,6,6,20,5,26,0.00,1,,140
2013-5-11,75,66,57,63,57,52,100,78,60,29.89,29.82,29.77,6,6,6,14,7,,0.00,4,Rain,299
2013-5-12,64,58,53,55,53,50,100,84,68,29.83,29.77,29.74,6,6,6,22,14,,0.00,4,Rain-Thunderstorm,291
2013-5-13,60,55,50,50,45,36,88,67,42,29.95,29.89,29.80,6,6,6,23,18,36,0.00,6,Rain,306
2013-5-14,62,55,48,50,46,43,94,71,55,29.95,29.93,29.92,6,6,6,14,11,,0.00,5,,321
2013-5-15,71,58,46,54,50,46,100,73,43,29.92,29.85,29.80,6,6,6,10,5,,0.00,2,,119
2013-5-16,75,62,50,55,52,48,94,68,41,29.83,29.76,29.68,,,,17,9,,0.00,,,96
2013-5-17,69,63,57,61,58,54,100,81,60,29.74,29.70,29.68,6,6,5,17,8,31,0.00,6,Rain-Thunderstorm,111
2013-5-18,73,62,51,57,52,48,100,72,43,29.95,29.89,29.68,6,6,6,16,9,25,0.00,2,Rain,188
2013-5-19,80,66,51,59,52,48,94,62,36,29.95,29.88,29.77,6,6,6,16,8,32,0.00,6,Rain-Thunderstorm,114
2013-5-20,69,61,53,59,52,46,100,72,43,29.95,29.91,29.80,6,6,6,17,8,,0.00,5,Rain-Thunderstorm,226
2013-5-21,71,58,46,52,47,43,100,65,40,29.95,29.91,29.83,6,6,6,17,7,,0.00,2,Thunderstorm,193
2013-5-22,66,58,51,55,51,46,94,77,52,29.83,29.74,29.68,6,6,6,14,6,,0.00,5,Rain-Thunderstorm,184
2013-5-23,62,56,50,52,48,43,100,74,55,29.71,29.63,29.56,6,6,6,16,9,,0.00,6,,320
2013-5-24,64,57,50,46,45,43,87,65,48,29.74,29.66,29.62,6,6,6,12,6,,0.00,5,,255
2013-5-25,62,55,48,50,47,41,100,73,45,29.77,29.75,29.71,6,6,5,14,5,,0.00,4,Rain,248
2013-5-26,60,55,50,52,46,39,94,77,52,29.77,29.73,29.71,6,6,6,15,6,,0.00,5,Rain,300
2013-5-27,57,49,41,46,42,37,93,71,55,29.83,29.80,29.77,6,6,6,14,8,,0.00,6,Rain,264
2013-5-28,69,56,44,54,48,41,94,72,43,29.83,29.77,29.71,6,6,6,16,7,,0.00,6,Rain-Thunderstorm,190
2013-5-29,77,62,46,57,52,45,94,70,44,29.71,29.63,29.56,6,6,6,15,7,,0.00,3,,100
2013-5-30,64,58,51,61,56,50,100,90,68,29.59,29.53,29.47,6,6,2,14,6,,0.00,6,Rain-Thunderstorm,196
2013-5-31,66,58,48,54,48,45,100,78,49,29.62,29.57,29.56,6,6,6,17,7,,0.00,5,Rain-Thunderstorm,170